Hayward, CA

3:38 PM PDT on May 23, 2018 (GMT -0700)
Hayward Executive

Weather History for KHWD - December, 2013

Change the Weather History Date:

Thursday, December 26, 2013

  Actual Average Record
Temperature  
Mean Temperature 52 °F 49 °F  
Max Temperature 63 °F 57 °F 64 °F (2006)
Min Temperature 40 °F 42 °F 34 °F (2008)
Degree Days  
Heating Degree Days 13    
Month to date heating degree days 370  
Since 1 July heating degree days 811  
Cooling Degree Days 0    
Month to date cooling degree days 0  
Year to date cooling degree days 250  
Growing Degree Days 2 (Base 50)    
Moisture  
Dew Point 37 °F    
Average Humidity 63    
Maximum Humidity 82    
Minimum Humidity 43    
Precipitation  
Precipitation 0.00 in - 0.36 in (2005)
Month to date precipitation 0.32  
Year to date precipitation 2.69  
Since 1 July precipitation 1.20  
Sea Level Pressure  
Sea Level Pressure 30.24 in    
Wind  
Wind Speed 2 mph (North)    
Max Wind Speed 8 mph    
Max Gust Speed 10 mph    
Visibility 8 miles    
Events      
T = Trace of Precipitation, MM = Missing Value Source: NWS Daily Summary

Daily Weather History Graph

Daily Weather History Graph

Search for Another Location

Airport or City:

Astronomy

Dec. 26, 2013 Rise Set
Actual Time 7:22 AM PST 4:56 PM PST
Civil Twilight 6:52 AM PST 5:25 PM PST
Nautical Twilight 6:19 AM PST 5:58 PM PST
Astronomical Twilight 5:48 AM PST 6:30 PM PST
Moon 1:01 AM PST (12/26) 12:30 PM PST (12/26)
Length of Visible Light 10h 33m
Length of Day
9h 34m
Last Quarter, 37% of the Moon is Illuminated
Dec 26
Last Quarter
Jan 1
New
Jan 7
First Quarter
Jan 15
Full
Jan 23
Last Quarter

Hourly Weather History & Observations

Time (PST) Temp. Windchill Dew Point Humidity Pressure Visibility Wind Dir Wind Speed Gust Speed Precip Events Conditions
12:54 AM 45.0 °F - 34.0 °F 65% 30.27 in 10.0 mi Calm Calm - N/A   Clear
1:54 AM 43.0 °F - 34.0 °F 71% 30.27 in 10.0 mi Calm Calm - N/A   Clear
2:54 AM 44.1 °F - 34.0 °F 68% 30.27 in 10.0 mi Calm Calm - N/A   Clear
3:54 AM 42.1 °F - 34.0 °F 73% 30.27 in 10.0 mi Calm Calm - N/A   Clear
4:54 AM 41.0 °F 39.0 °F 34.0 °F 76% 30.27 in 8.0 mi ESE 3.5 mph - N/A   Clear
5:54 AM 42.1 °F - 35.1 °F 76% 30.27 in 7.0 mi Calm Calm - N/A   Unknown
6:54 AM 41.0 °F - 34.0 °F 76% 30.27 in 8.0 mi Calm Calm - N/A   Clear
7:54 AM 43.0 °F - 37.0 °F 80% 30.28 in 7.0 mi Calm Calm - N/A   Unknown
8:54 AM 48.0 °F - 39.9 °F 74% 30.28 in 7.0 mi Calm Calm - N/A   Unknown
9:54 AM 52.0 °F - 39.9 °F 63% 30.29 in 7.0 mi Calm Calm - N/A   Unknown
10:54 AM 57.0 °F - 39.0 °F 51% 30.28 in 7.0 mi Calm Calm - N/A   Unknown
11:54 AM 59.0 °F - 39.9 °F 49% 30.25 in 7.0 mi Variable 3.5 mph - N/A   Clear
12:54 PM 60.1 °F - 39.9 °F 47% 30.22 in 7.0 mi West 4.6 mph - N/A   Clear
1:54 PM 61.0 °F - 39.9 °F 46% 30.20 in 7.0 mi WNW 3.5 mph - N/A   Unknown
2:54 PM 62.1 °F - 41.0 °F 46% 30.19 in 7.0 mi West 4.6 mph - N/A   Clear
3:54 PM 62.1 °F - 39.9 °F 44% 30.19 in 7.0 mi WNW 6.9 mph - N/A   Clear
4:54 PM 59.0 °F - 39.0 °F 48% 30.20 in 7.0 mi Calm Calm - N/A   Clear
5:54 PM 54.0 °F - 37.9 °F 55% 30.21 in 7.0 mi Calm Calm - N/A   Clear
6:54 PM 54.0 °F - 39.0 °F 57% 30.22 in 5.0 mi ENE 4.6 mph - N/A   Haze
7:54 PM 53.1 °F - 36.0 °F 52% 30.22 in 10.0 mi Calm Calm - N/A   Clear
8:54 PM 52.0 °F - 35.1 °F 53% 30.22 in 10.0 mi ENE 4.6 mph - N/A   Clear
9:54 PM 51.1 °F - 34.0 °F 52% 30.24 in 10.0 mi Calm Calm - N/A   Clear
10:54 PM 48.0 °F - 36.0 °F 63% 30.24 in 10.0 mi East 3.5 mph - N/A   Clear
11:54 PM 45.0 °F - 34.0 °F 65% 30.24 in 10.0 mi Calm Calm - N/A   Clear